Location: Chandrammap?lem
(16.9200°N, 81.0051°E)
Time: 03:54:08
(UTC+00:00)

PAYLOAD A - Pass Details

Date: 29 May 2024
Orbit: 691 x 830 km, 98.5° (Epoch: 21 June)

Event Time Altitude Azimuth Distance (km) Brightness Sun altitude
Rises 22:00:52 0° 12° (NNE) 3,185 7.9 -26.2°
Reaches altitude 10° 22:03:07 10° 12° (NNE) 2,281 7.0 -25.7°
Maximum altitude 22:08:10 89° 104° (ESE) 782 3.9 -24.7°
Enters shadow 22:09:08 60° 191° (S) 888 4.0 -24.5°
